Temperature
20 20 19 19 19 19 20 20 20 20 19 19 19 19 19 19 19 19 19 19 19 19 19 19 19 19 19 19 20 19 19 19 19 19 19 19 19 19 19 18 19 18 18
20 20 20 20 19 20 20 20 20 20 19 19 19 19 19 19 19 19 19 19 19 19 19 19 19 19 19 19 19 19 19 19 19 19 19 19 19 19 19 19 19 18 18
21 20 20 20 20 20 19 19 19 19 19 19 19 19 19 19 19 19 19 19 19 19 19 19 19 19 19 19 19 19 19 19 19 19 19 19 19 19 19 19 19 19 18
21 20 20 20 20 20 20 19 19 19 19 19 19 19 19 19 19 19 19 19 19 19 19 19 19 19 19 19 19 19 19 19 19 19 19 19 19 19 19 19 19 18 18
20 20 20 20 20 20 20 19 19 19 19 19 19 19 19 19 19 19 19 19 19 19 19 19 19 19 19 19 19 19 19 19 19 19 19 19 19 19 19 18 18 18 18
21 20 20 20 20 20 20 19 19 19 19 19 19 19 19 19 19 19 19 19 19 19 19 19 19 18 18 19 19 19 19 18 19 19 19 19 19 19 18 18 18 18 18
21 20 20 20 20 20 20 19 19 19 19 19 19 19 19 19 19 19 19 19 19 19 19 18 18 18 18 18 18 18 18 18 18 18 18 18 18 18 18 18 18 18 18
21 20 20 20 20 20 20 19 19 19 19 19 19 19 19 19 19 19 19 19 19 19 19 18 18 18 18 18 18 18 18 18 18 18 18 18 18 18 18 18 18 18 18
20 20 20 20 20 20 20 19 19 19 19 19 19 19 19 19 19 19 19 19 19 19 18 18 18 18 18 18 18 18 18 18 18 18 18 18 18 18 18 18 18 18 18
20 20 20 20 20 20 20 20 19 19 19 19 19 19 19 19 19 19 19 19 19 19 18 18 18 18 18 18 18 18 18 18 18 18 18 18 18 18 18 18 18 18 18
20 20 20 20 20 20 20 19 19 19 19 19 19 19 19 19 19 19 19 19 19 19 18 18 18 18 18 18 18 18 17 18 18 18 18 18 18 18 18 18 18 18 18
20 20 20 20 20 20 19 19 19 19 19 19 19 19 19 19 19 19 19 19 19 19 18 18 18 18 18 17 17 17 17 18 18 18 18 18 18 18 18 18 18 18 18
20 20 20 20 20 19 19 19 19 19 19 19 19 18 18 18 18 19 19 19 19 19 18 18 18 18 17 17 17 17 17 17 18 17 17 17 18 18 18 18 18 18 18
19 19 19 20 20 19 19 19 19 19 19 19 19 18 18 18 18 18 18 19 19 19 18 18 18 18 17 17 17 17 17 17 17 17 17 17 17 17 17 17 18 17 17
19 19 19 19 19 19 19 19 19 19 19 19 18 18 18 18 18 18 18 19 19 19 18 18 18 18 17 17 17 17 17 17 17 17 17 17 17 17 17 17 17 17 17
18 18 19 19 19 19 19 19 19 19 19 19 19 18 18 18 18 18 18 18 18 18 18 18 18 18 17 17 17 17 17 17 17 17 17 17 17 17 17 17 17 17 17
17 18 18 19 19 19 19 19 19 19 19 19 19 19 18 18 18 18 18 18 18 18 18 18 18 18 18 18 18 18 17 17 17 17 17 17 17 17 17 17 17 17 17
17 17 17 18 18 19 19 19 19 19 19 19 19 19 18 18 18 18 18 18 18 18 18 17 18 17 18 18 18 18 17 17 17 17 17 17 17 17 17 17 17 17 17
16 16 17 17 18 18 18 19 19 19 19 19 19 19 18 18 18 18 18 18 18 18 18 17 17 17 18 18 18 17 17 17 17 17 17 17 17 17 17 17 17 17 17
16 16 16 17 17 17 18 18 19 19 19 19 19 19 18 18 18 18 18 18 18 18 18 18 18 17 18 18 17 17 17 17 17 17 17 17 17 17 17 17 17 17 17
15 16 16 16 17 17 17 18 18 18 19 19 19 19 18 18 18 18 18 18 18 18 18 18 17 17 17 17 17 17 17 17 17 17 17 17 17 17 17 17 16 16 16
15 15 15 16 16 16 17 17 17 18 18 18 18 18 18 18 18 18 18 18 18 18 18 17 17 17 17 17 17 17 17 17 17 17 17 17 17 17 17 17 16 16 16
14 14 14 15 15 16 16 16 17 17 17 17 18 18 18 18 18 18 18 18 17 17 17 17 17 17 17 17 17 17 17 17 17 17 17 17 17 17 17 17 17 16 16
13 13 14 14 14 15 15 15 16 16 16 17 17 17 17 17 17 17 17 17 17 17 17 17 17 16 16 16 16 16 16 17 17 17 17 17 17 17 17 17 17 16 16
13 13 13 13 14 14 14 14 15 15 15 16 16 16 17 17 17 17 17 17 17 17 17 16 16 16 16 16 16 16 16 16 16 16 16 17 17 17 17 17 17 16 16
13 13 13 13 13 13 14 14 14 14 15 15 15 16 16 16 16 16 16 16 16 16 16 16 16 16 16 16 15 15 15 15 16 16 16 16 16 16 16 16 16 16 16
Wind_Speed
5 7 11 12 12 12 12 12 13 13 14 14 14 14 13 13 12 11 11 10 9 9 9 9 8 8 8 9 8 8 8 8 8 8 8 8 7 8 8 8 7 7 8
9 11 14 13 13 12 12 12 12 12 13 12 12 12 12 12 12 11 10 10 9 9 8 8 8 8 8 8 8 8 8 8 8 8 8 7 7 8 8 8 7 6 7
10 12 14 14 13 12 12 11 11 12 11 11 11 11 11 11 11 10 10 9 9 9 8 8 8 8 7 7 8 8 7 7 7 8 7 6 6 8 8 7 8 8 7
11 12 13 14 13 12 12 11 11 11 11 10 10 10 10 10 10 9 9 9 8 8 8 7 7 7 7 7 7 7 6 7 8 7 6 6 5 7 7 7 8 7 7
10 12 13 15 13 12 12 11 11 11 10 10 10 9 9 9 9 9 8 8 8 7 7 6 6 6 6 6 7 7 6 7 7 7 6 6 5 6 7 7 7 7 7
8 11 13 15 13 12 12 11 11 11 10 10 10 9 9 8 8 8 7 7 7 6 6 5 5 5 5 5 6 6 6 7 7 6 6 5 5 6 7 8 8 7 7
8 10 13 14 14 13 12 12 11 11 10 10 9 9 8 8 7 7 6 6 6 5 5 4 4 4 4 4 5 5 5 6 6 5 4 3 3 5 7 7 7 7 7
8 9 11 14 14 13 13 12 12 11 11 10 9 9 8 8 7 7 6 5 5 4 4 3 3 4 4 4 4 4 4 4 5 4 3 2 3 5 6 6 7 7 7
6 7 8 11 13 13 13 13 12 12 11 10 10 9 8 7 7 6 5 5 4 3 3 2 3 3 3 4 3 3 3 4 5 3 2 2 2 4 5 6 7 7 7
5 5 6 8 10 11 12 13 13 13 12 11 10 10 9 8 7 7 6 5 4 3 2 1 2 2 3 4 3 3 3 4 4 3 2 2 3 4 5 5 6 6 7
5 4 4 5 7 9 10 12 13 13 13 12 11 11 9 7 6 6 6 5 5 4 3 1 0 2 3 4 4 3 3 3 3 2 2 2 3 4 5 5 5 6 6
6 5 5 5 6 7 9 10 10 11 11 11 10 9 9 8 7 6 6 7 6 5 4 2 1 2 3 3 3 3 2 2 2 2 2 2 3 4 5 5 5 5 6
4 5 6 6 6 7 6 7 7 8 9 9 10 10 9 8 7 6 5 6 5 5 3 2 2 1 1 1 1 1 1 2 2 2 2 2 3 4 4 5 5 5 5
4 4 5 5 5 7 8 6 6 6 6 7 10 12 9 6 5 5 5 5 5 4 3 3 2 2 2 2 2 2 2 4 4 3 3 2 3 3 4 4 4 4 4
7 6 5 4 6 5 6 5 6 7 7 9 11 12 12 6 4 5 5 6 6 6 5 4 3 3 3 3 3 4 4 5 5 4 3 3 3 3 3 4 4 4 4
10 8 6 5 6 5 6 7 6 8 9 10 11 13 14 11 7 5 4 5 6 7 7 5 4 3 2 2 3 4 6 6 6 5 4 3 3 3 3 3 4 4 4
10 9 8 6 3 4 7 8 7 8 9 9 11 14 15 14 10 7 5 5 6 8 7 5 4 3 2 2 2 3 4 6 6 6 5 4 3 2 2 3 3 4 4
11 10 9 8 7 5 5 6 6 7 9 9 11 12 15 16 14 9 6 6 7 7 5 3 3 2 2 2 2 2 2 4 5 6 5 5 4 3 3 3 3 3 3
11 10 10 9 9 7 6 6 6 6 7 9 10 10 12 15 15 10 7 6 8 5 4 5 3 3 3 3 3 2 2 3 4 5 5 6 6 5 4 4 3 3 4
10 10 9 9 9 8 6 5 4 5 6 7 7 9 11 11 13 10 6 7 6 5 5 4 4 3 3 4 3 2 1 2 2 4 5 6 7 7 6 5 4 4 4
11 11 10 10 9 8 5 4 4 4 5 5 6 8 11 11 11 9 7 6 6 6 6 6 4 4 2 3 3 1 1 1 3 4 3 4 6 8 8 7 6 5 5
12 11 10 9 9 8 6 5 4 4 4 4 4 6 9 10 11 10 9 7 6 6 6 6 5 4 3 3 4 2 1 2 2 2 3 5 5 5 7 9 9 8 7
13 12 11 10 9 9 8 5 4 3 3 2 3 4 5 7 8 8 8 7 6 6 6 6 6 6 4 3 3 4 4 5 2 2 2 3 4 4 5 7 9 10 10
13 11 10 10 9 9 8 6 5 4 4 3 3 3 3 4 6 6 6 7 7 6 6 6 6 4 5 4 2 2 2 3 3 1 2 2 3 5 5 5 7 10 11
11 11 10 9 9 9 8 7 6 5 4 3 2 2 2 2 3 5 5 6 7 6 7 7 6 6 5 5 4 3 2 1 2 3 2 2 2 3 4 5 5 8 10
11 10 10 10 9 9 9 8 7 7 5 4 3 2 2 1 2 4 4 5 5 6 7 8 8 8 7 6 5 4 4 3 4 4 4 3 2 3 2 3 5 6 9
Wind_Direction
170 168 157 147 141 135 130 125 122 120 119 119 120 122 123 124 125 125 125 124 123 125 128 127 127 125 120 117 115 114 111 108 104 101 97 95 91 94 101 105 99 98 104
151 159 154 148 145 141 137 132 128 124 122 121 122 122 124 125 126 126 126 126 125 123 123 122 123 122 118 114 114 113 109 104 101 99 93 88 88 93 102 106 105 106 106
143 152 152 150 147 146 142 137 133 129 127 125 124 124 125 126 127 127 127 125 124 122 121 120 120 120 116 111 109 107 103 101 101 98 88 73 80 89 97 106 111 111 109
144 147 151 153 152 151 148 144 140 136 134 131 128 125 125 125 125 126 126 124 122 120 120 120 120 120 116 109 102 100 97 99 101 99 83 64 69 91 93 98 107 113 113
144 146 156 157 158 157 154 152 148 144 141 137 133 129 127 127 127 127 126 124 122 120 120 119 119 120 118 111 103 98 95 100 102 96 86 72 69 90 92 91 97 105 108
143 150 162 162 163 163 161 161 158 153 151 147 143 140 136 133 130 130 129 128 126 123 122 119 117 118 115 109 101 94 94 102 100 97 89 79 72 88 92 92 93 96 102
149 156 168 168 170 171 169 168 167 164 161 158 156 151 149 145 141 138 137 135 134 130 123 118 114 112 108 99 93 92 96 108 112 107 98 84 80 93 94 92 94 92 93
155 160 173 177 178 180 179 177 176 175 173 172 170 166 162 158 153 149 144 141 140 136 128 111 102 105 97 91 89 93 98 112 125 123 122 105 102 103 100 95 96 95 98
156 162 177 183 186 188 188 187 187 186 185 184 183 180 175 172 169 165 161 159 155 147 137 111 86 85 81 78 81 88 103 119 133 144 146 148 135 121 116 104 99 97 98
162 175 184 190 191 194 196 197 197 197 196 194 192 191 189 187 187 185 182 182 182 177 168 135 76 61 64 61 63 73 93 110 129 143 150 174 164 143 130 117 109 104 102
193 201 197 199 199 199 202 208 206 206 205 204 202 201 198 196 199 203 202 206 211 209 204 196 80 39 52 48 48 69 92 108 134 149 174 183 167 154 143 132 124 114 110
215 215 211 208 206 203 210 215 213 211 210 208 204 204 197 195 203 213 221 226 228 229 232 237 271 20 48 43 37 59 94 134 153 180 212 201 172 159 148 141 134 127 120
237 228 220 215 210 207 217 218 213 211 208 206 205 203 198 199 209 219 225 243 252 250 250 271 316 9 35 11 3 39 171 194 205 228 250 222 181 166 155 148 143 138 134
301 268 247 225 215 215 218 224 216 212 210 207 207 204 197 199 209 215 220 230 240 243 239 250 262 280 282 274 273 253 213 197 207 225 247 230 193 178 165 158 152 146 144
350 326 289 246 228 223 220 225 220 215 216 214 211 208 204 203 209 215 224 226 229 229 227 237 250 267 279 278 258 227 215 208 210 218 238 235 204 189 176 164 158 158 152
357 346 328 282 241 230 231 231 228 221 218 214 212 212 210 211 211 212 221 223 224 221 221 224 236 247 263 262 247 219 210 206 209 212 224 239 228 204 189 182 169 165 163
351 348 347 335 307 256 243 240 238 229 221 218 217 213 211 212 213 212 214 223 225 218 213 221 234 230 237 233 232 207 196 199 201 208 215 226 236 227 215 206 194 183 180
352 349 346 348 344 314 277 256 242 233 223 223 219 212 211 213 212 209 211 224 223 206 193 198 204 202 213 206 203 203 191 194 204 210 216 224 230 235 233 224 208 201 205
350 346 345 347 345 328 301 273 251 238 230 225 219 212 212 212 211 206 211 221 211 190 189 201 187 183 193 196 192 193 196 196 203 212 217 223 227 231 233 234 228 223 223
345 343 343 344 344 336 319 297 270 249 238 227 220 216 209 208 208 204 209 213 202 192 194 188 182 180 184 179 174 155 195 217 210 215 218 220 224 228 230 232 230 231 234
348 348 344 342 339 339 335 321 294 266 252 235 222 212 203 198 197 198 208 204 196 198 199 185 168 167 166 141 117 83 331 277 232 231 221 218 223 224 224 226 225 229 237
347 345 340 338 334 332 324 306 283 274 267 252 237 220 208 201 196 199 197 195 191 193 189 182 165 158 163 158 143 135 243 305 269 230 222 225 229 218 220 224 222 224 229
346 343 337 332 332 330 328 317 308 295 285 270 247 229 215 202 199 195 188 186 185 188 191 189 179 166 172 182 171 155 167 217 255 286 242 231 227 218 222 221 222 225 226
341 339 335 331 331 334 334 331 320 305 291 280 271 251 225 199 193 189 185 182 182 182 184 190 183 177 166 179 190 188 177 161 167 243 295 263 236 226 226 223 224 226 226
339 341 340 335 339 341 343 341 331 315 297 295 278 251 233 209 187 177 182 180 184 185 185 185 182 182 184 181 178 167 159 135 145 171 236 279 290 252 232 223 222 228 228
343 344 346 347 346 347 348 351 347 338 332 333 317 268 229 197 176 172 179 185 189 191 191 192 188 189 192 186 183 177 170 168 185 182 201 224 249 275 263 236 223 228 230
Height
1529 1532 1534 1537 1539 1541 1542 1543 1544 1545 1546 1547 1547 1548 1549 1550 1551 1552 1552 1553 1554 1554 1555 1555 1555 1556 1556 1556 1557 1557 1557 1558 1558 1558 1558 1557 1557 1557 1557 1557 1557 1557 1558
1529 1532 1535 1537 1540 1541 1543 1544 1545 1546 1547 1548 1549 1549 1550 1551 1552 1552 1553 1554 1554 1555 1555 1556 1556 1556 1557 1557 1558 1558 1558 1559 1559 1559 1559 1559 1558 1558 1558 1558 1558 1558 1559
1530 1533 1536 1538 1540 1542 1544 1545 1546 1547 1548 1549 1550 1550 1551 1551 1552 1553 1553 1554 1554 1555 1555 1556 1557 1557 1558 1558 1559 1559 1560 1560 1560 1560 1560 1560 1560 1559 1559 1559 1559 1559 1559
1531 1534 1537 1539 1541 1543 1544 1546 1547 1548 1549 1550 1550 1551 1552 1552 1553 1553 1554 1554 1555 1555 1556 1556 1557 1558 1558 1559 1559 1560 1560 1561 1561 1561 1561 1561 1561 1560 1560 1560 1560 1560 1560
1533 1536 1538 1540 1542 1544 1545 1546 1547 1548 1549 1550 1551 1552 1552 1553 1553 1554 1554 1554 1555 1556 1556 1557 1557 1558 1559 1559 1560 1561 1561 1562 1562 1562 1562 1562 1562 1562 1562 1562 1561 1561 1562
1534 1537 1539 1541 1543 1544 1546 1547 1548 1549 1550 1551 1551 1552 1552 1553 1553 1554 1554 1555 1555 1556 1556 1557 1557 1558 1559 1560 1561 1561 1562 1562 1563 1563 1563 1563 1563 1563 1563 1563 1563 1562 1563
1535 1538 1540 1542 1544 1545 1546 1547 1548 1549 1550 1551 1552 1552 1553 1553 1553 1554 1554 1555 1555 1556 1556 1557 1558 1558 1559 1560 1561 1562 1562 1563 1563 1563 1563 1563 1563 1563 1563 1564 1564 1563 1564
1537 1539 1541 1543 1544 1545 1547 1548 1549 1549 1550 1551 1552 1552 1553 1553 1553 1554 1554 1554 1555 1556 1557 1557 1558 1559 1559 1560 1561 1562 1563 1563 1564 1564 1564 1564 1564 1564 1564 1564 1564 1565 1565
1539 1540 1542 1543 1544 1546 1547 1548 1548 1549 1550 1551 1551 1552 1552 1553 1553 1553 1554 1554 1555 1556 1556 1557 1558 1559 1559 1560 1561 1562 1563 1564 1564 1564 1564 1564 1564 1564 1565 1565 1565 1565 1566
1540 1541 1542 1544 1545 1546 1547 1547 1548 1549 1549 1550 1551 1551 1552 1552 1553 1553 1554 1554 1555 1555 1556 1557 1558 1558 1559 1560 1561 1562 1563 1564 1564 1564 1564 1564 1564 1565 1565 1565 1566 1566 1566
1540 1541 1542 1543 1544 1545 1546 1547 1547 1548 1549 1549 1550 1551 1551 1552 1552 1553 1553 1553 1554 1555 1556 1557 1557 1558 1559 1560 1561 1562 1563 1564 1564 1564 1564 1564 1564 1564 1565 1566 1566 1567 1567
1540 1541 1542 1543 1544 1545 1545 1546 1546 1547 1548 1548 1549 1550 1550 1551 1551 1552 1552 1553 1553 1554 1555 1556 1557 1558 1559 1560 1561 1562 1563 1564 1564 1564 1564 1564 1564 1564 1565 1565 1566 1567 1567
1541 1542 1542 1542 1543 1543 1544 1544 1545 1546 1546 1547 1548 1549 1549 1550 1550 1551 1551 1552 1552 1553 1555 1556 1557 1558 1559 1560 1561 1562 1563 1564 1564 1564 1564 1564 1564 1564 1564 1565 1566 1567 1567
1541 1541 1541 1541 1542 1542 1543 1543 1543 1544 1545 1545 1546 1547 1548 1548 1549 1550 1550 1551 1552 1553 1554 1555 1557 1558 1559 1560 1561 1562 1563 1564 1564 1564 1563 1563 1563 1563 1563 1564 1565 1566 1567
1539 1539 1539 1539 1540 1540 1541 1541 1541 1542 1542 1543 1544 1545 1546 1547 1548 1549 1549 1550 1551 1552 1553 1555 1556 1558 1559 1560 1561 1562 1563 1563 1563 1563 1563 1562 1562 1562 1563 1564 1565 1566 1567
1537 1537 1536 1536 1537 1538 1538 1538 1539 1539 1540 1540 1541 1542 1543 1545 1546 1547 1548 1549 1550 1551 1552 1554 1555 1557 1558 1559 1560 1561 1562 1563 1563 1563 1562 1562 1562 1562 1563 1563 1564 1565 1566
1536 1535 1534 1533 1533 1534 1534 1534 1535 1536 1537 1537 1538 1539 1540 1542 1543 1545 1546 1547 1548 1550 1551 1553 1554 1556 1557 1558 1559 1560 1561 1561 1562 1562 1562 1562 1562 1562 1562 1563 1563 1564 1565
1535 1533 1532 1530 1529 1529 1529 1530 1530 1532 1533 1533 1534 1535 1537 1538 1540 1542 1543 1544 1546 1548 1549 1551 1552 1554 1555 1556 1557 1558 1559 1560 1561 1561 1562 1562 1562 1562 1562 1562 1563 1563 1564
1534 1532 1530 1528 1526 1525 1525 1525 1525 1526 1527 1528 1530 1531 1532 1534 1536 1538 1539 1541 1543 1545 1547 1548 1550 1551 1553 1554 1556 1556 1557 1558 1559 1560 1561 1561 1561 1562 1562 1562 1562 1562 1563
1533 1530 1527 1525 1523 1522 1521 1520 1520 1521 1521 1522 1524 1525 1527 1529 1532 1533 1535 1538 1539 1541 1543 1545 1547 1549 1550 1552 1553 1554 1555 1556 1557 1558 1559 1560 1560 1561 1561 1561 1562 1562 1562
1531 1528 1525 1523 1521 1519 1517 1516 1515 1515 1516 1517 1518 1519 1522 1524 1526 1528 1530 1533 1535 1536 1539 1541 1543 1545 1547 1549 1550 1552 1553 1553 1554 1555 1557 1557 1558 1559 1560 1560 1561 1561 1561
1529 1526 1524 1521 1519 1516 1514 1512 1511 1510 1510 1511 1512 1513 1516 1519 1521 1523 1525 1527 1529 1532 1534 1536 1539 1541 1543 1545 1547 1548 1549 1551 1551 1552 1553 1554 1556 1557 1558 1559 1559 1560 1561
1528 1524 1521 1519 1516 1513 1511 1509 1507 1506 1505 1506 1507 1508 1510 1513 1515 1518 1520 1522 1524 1527 1529 1532 1534 1536 1538 1541 1542 1545 1545 1546 1547 1548 1549 1551 1552 1553 1555 1556 1557 1558 1559
1527 1523 1520 1517 1514 1511 1509 1506 1504 1503 1502 1502 1503 1503 1505 1507 1510 1512 1514 1517 1519 1521 1524 1527 1529 1532 1534 1536 1538 1540 1542 1542 1544 1544 1546 1547 1548 1549 1551 1553 1554 1556 1557
1527 1523 1519 1516 1513 1510 1507 1504 1502 1500 1499 1499 1499 1499 1501 1502 1505 1507 1510 1512 1514 1516 1519 1521 1523 1526 1529 1531 1533 1535 1537 1538 1540 1541 1542 1543 1544 1546 1547 1549 1550 1552 1554
1527 1523 1519 1515 1512 1509 1506 1503 1501 1499 1498 1497 1497 1497 1498 1499 1501 1503 1505 1507 1509 1511 1513 1515 1518 1521 1523 1526 1528 1530 1532 1534 1535 1537 1538 1539 1540 1542 1543 1545 1546 1548 1550